{"data":{"norad_id":51946,"intl_designator":"2022-023A","name":"2022-023A","alt_names":[],"object_type":"PAYLOAD","status":"ACTIVE","operator":null,"country":"PRC","launch_date":"2022-03-05","launch_site_code":"XICLF","launch_vehicle":null,"mission":null,"orbit_class":"UNKNOWN","rcs_meters":null,"size_class":null,"mass_kg":null,"dimensions":null,"purposes":[],"wikipedia_slug":null,"has_3d_model":false,"image_url":null,"decayed_at":null,"tle_current":{"epoch":"2026-05-25T02:38:14.843328Z","epoch_age_seconds":62777,"freshness":"FRESH","line1":"1 51946U 22023A   26145.10989402  .00013834  00000+0  59726-3 0  9995","line2":"2 51946  63.4870 348.7623 0104125 343.0586  16.7058 15.17944798234214","mean_motion":15.17944798,"eccentricity":0.0104125,"inclination_deg":63.487,"raan_deg":348.7623,"arg_perigee_deg":343.0586,"mean_anomaly_deg":16.7058,"bstar":0.00059726,"rev_number":23421,"period_min":94.865109844396,"perigee_km":440.3087596328,"apogee_km":583.79696349992,"semimajor_km":6890.1898615664,"source":"CELESTRAK","updated_at":"2026-05-25T13:37:57.568859Z"}}}